星链-33684 (STARLINK-33684)

导读

STARLINK-33684是美国SpaceX公司星链(Starlink)卫星互联网项目中的一颗低轨通信卫星,于2025年4月25日由美国发射入轨。作为星链星座组网的组成部分,它运行在近地轨道,配备卫星通信与推进系统,旨在为全球提供高速低延迟宽带互联网服务,扩展星链网络覆盖范围,服务民用通信与特殊行业需求,目前已在轨正常运行。

基本信息
目录编号:
63649
目录名称:
STARLINK-33684
国际标识:
2025-083R
轨道中心:
EARTH
卫星名称:
星链-33684
卫星全名:
星链-33684 (STARLINK-33684)
卫星状态:
在轨 (已飞行415 天)
发射日期:
2025-04-25 UTC
国别 :
美国 (US)
星等 :
--
轨道信息
数据来源 国际轨道数据
星历时间: 2026-06-13T02:44:17+0800
1天前
查看轨道信息
半长轴: 6861.107km
偏心率: 0.000186
轨道倾角: 42.995°
近地点辐角 267.267°
升交点赤经 187.854°
平近点角 92.797°
近地点: 481.693km
远地点: 484.247km
周期: 94.265分钟
每日圈数: 15.276067
详细信息
固有亮度:
5
最大亮度:
2.5
卫星平台:
Starlink V1.0
覆盖范围:
全球
运营商:
太空探索技术公司
运营商所在国:
美国
制造商(研发单位):
太空探索技术公司
制造商所在国:
美国
使用方式:
暂无
卫星简介
Starlink 计划是 SpaceX 推出的全球卫星互联网项目,通过发射低轨道卫星,为全球尤其是偏远地区提供高速、低延迟的互联网服务。自 2019 年起,Starlink 已部署数千颗卫星,旨在缩小全球数字鸿沟,推动互联网普及。该项目还为军事、航空等行业提供通信支持,带来广泛经济效益。
2D轨道图
3D轨道图
轨道高度分析图
轨道倾角分析图
轨道综合分析图
查看轨道综合分析图